Sign-up FREE! View Cart Login
HyperLink
5 Online
 
 
Artist Details

Homer & Jethro
Contact:
Date Born/Group Began: 1932 (I B Emerson) 
Date Died/Group Ended: 1971 (I B Emerson) 
Also Known As:
Members:
Henry D. "Homer" Haynes (Stavro Arrgolus)
Kenneth C. "Jethro" Burns (Stavro Arrgolus)
Comedy singing duo, mostly of the country genre. (I B Emerson)
Reviews:
Facts:
  • The following is from Wikipedia: Homer and Jethro were an American country music team with a long career from the 1940s through the 1960s, sometimes known as "the thinking man's hillbillies", specializing in comedy records and satirical versions of popular songs. Guitarist Henry D. "Homer" Haynes (July 27, 1920 - August 7, 1971) and mandolin player Kenneth C. "Jethro" Burns (March 10, 1920 - February 4, 1989) were both born around Knoxville, Tennessee, and met on a radio audition when they were 12 years old.[1] Previously known as 'Junior' and 'Dude', (pronounced "Dude-ee") they were mis-introduced during a 1936 broadcast and adopted the names Homer and Jethro. Both were outstanding jazz musicians, however, who were deeply influenced by the European Gypsy string jazz of Django Reinhardt, a style that would influence their work until Haynes's death. The pair originally recorded for King Records of Cincinnati at a time when they were working at local radio station WLW on the station's "barn dance" type radio show the "Midwestern Hayride." At the time they performed exaggerated hillbilly-styled versions of pop standards as their comedic hook. At King, they also worked as session musicians backing other artists until a dispute over song credits with label owner Syd Nathan led Nathan to release them from the label. Signed to the RCA Victor label in 1949, RCA's country A&R man Steve Sholes suggested they switch their comedy hook to singing parodies of country and pop hits. Most were penned by Burns, the wit and humorist of the pair. Their parody of "Baby It's Cold Outside", recorded with June Carter, became a hit. The song's composer Frank Loesser gave them permission to parody the tune with the condition that the label read, "With apologies to Frank Loesser". This led to a spot on WLS radio in Chicago in 1950, a tour with bandleader Spike Jones, and a number of successful albums. They also served as backup musicians on a number of late 1940s and early 1950s RCA recordings by Chet Atkins and on many other RCA country sessions in Chicago and Nashville. They won a Grammy in 1959 for "The Battle of Kookamonga", their parody of Johnny Horton's major hit "The Battle Of New Orleans." The majority of their recordings were similar parodies of famous old and new popular songs. One example was their treatment of the old romantic song "When You Wore A Tulip" (When you wore a Tulip--/A sweet yellow Tulip--/And I wore a big red Rose). While keeping that line of the chorus intact, the duo's version of its verse told of two lovers having to sleep out in a greenhouse, removing their clothes due to the heat and humidity within it, and then having to escape when the building began to burn. Thus, to cover up their nakedness, the couple had to resort to using the aforementioned flowers. Over time, their patter became more sophisticated, giving them access to mainstream audiences on network television and in Las Vegas. They were also hired as spokespersons and commercial personalities for Kellogg's Corn Flakes in the 1960s, their "ooh! that's corny!" TV spots giving them exposure beyond the country music audience. Chet Atkins produced many of their later RCA albums including two blazing instrumental jazz efforts: "Playing It Straight" and "It Ain't Necessarily Square." Homer and Jethro were inducted into the Country Music Hall of Fame in 2001. Jethro's brother-in-law was guitarist and producer Chet Atkins. Haynes died in 1971 of a heart attack. Burns attempted to maintain the duo for a time with a new "Homer," guitarist Ken Eidson, but the effort was short-lived. Burns continued working as a musician, recording and performing solo and working as a sidemen with musicians including Atkins, singer-songwriters Steve Goodman and others. At times, he appeared in the "All-Star Band" on TV's Hee Haw with Atkins and swing fiddler Johnny Gimble. He also became a master teacher of mandolin jazz. He died in 1989 after a bout with prostate cancer. (artpaul)
  • Played on 260 shows:
    12-02-18, #OTR-4-4806-21-98, #98-25
    11-25-18, #OTR-4-4712-07-97, #97-49
    07-01-18, #OTR-4-2606-29-97, #97-26
    05-26-18, #AOTA-18052606-15-97, #97-24
    02-18-18, #OTR-4-0702-02-97, #97-05
    12-31-17, #OTR-3-5201-19-97, #97-03
    12-23-17, #AOTA-17122308-18-96, #96-33
    10-15-17, #OTR-3-4206-30-96, #96-26
    10-01-17, #OTR-3-4003-31-96, #96-13
    08-23-17, #ISGD-17-3601-07-96, #96-01
    08-16-17, #ISGD-17-3509-17-95, #95-38
    08-07-17, #OTR-3-3207-23-95, #95-30
    07-31-17, #OTR-3-3107-02-95, #95-27
    07-22-17, #KMCC-T12-3605-28-95, #95-22
    07-17-17, #OTR-3-2908-14-94, #94-33
    06-14-17, #ISGD-17-2407-17-94, #94-29
    05-17-17, #ISGD-17-1907-10-94, #94-28
    05-08-17, #OTR-3-1904-03-94, #94-14
    03-27-17, #OTR-3-1302-06-94, #94-06
    12-26-16, #MMS-20910-24-93, #93-43
    11-26-16, #AOTA-16112608-29-93, #93-35
    08-20-16, #AOTA-16082008-08-93, #93-32
    08-11-16, #ISGD-16-3406-13-93, #93-24
    08-06-16, #16-3205-30-93, #93-22
    07-02-16, #AOTA-16070203-21-93, #93-12
    06-30-16, #ISGD-16-2808-23-92, #92-34
    05-21-16, #AOTA-16052106-28-92, #92-26
    09-26-15, #ISGD-15-4005-31-92, #92-22
    08-15-15, #1503302-09-92, #92-06
    06-20-15, #ISGD-15-2602-02-92, #92-05
    06-06-15, #ISGD-15-2401-19-92, #92-03
    05-16-15, #ISGD-15-2112-15-91, #91-50
    05-09-15, #ISGD-15-2008-18-91, #91-33
    04-18-15, #ISGD-15-1708-11-91, #91-32
    03-28-15, #ISGD-15-1307-28-91, #91-30
    03-07-15, #ISGD-15-1007-14-91, #91-28
    02-21-15, #ISGD-15-0806-16-91, #91-24
    12-17-14, #ISGD-14-6903-10-91, #91-10
    12-13-14, #14-5012-23-90, #90-51
    08-19-14, #BWR-14-08-1908-19-90, #90-33
    08-02-14, #14-3108-12-90, #90-32
    06-14-14, #AOTA-14061406-17-90, #90-24
    06-14-14, #14-2406-03-90, #90-22
    05-24-14, #AOTA-14052403-18-90, #90-11
    04-05-14, #14-1402-25-90, #90-08
    02-02-14, #MMS-18312-24-89, #89-52
    01-02-14, #ISGD-14-0108-20-89, #89-34
    12-14-13, #AOTA-13121407-30-89, #89-31
    09-14-13, #13-3707-23-89, #89-30
    08-22-13, #ISGD-13-3406-18-89, #89-25
    08-10-13, #13-3206-11-89, #89-24
    06-27-13, #ISGD-13-2604-09-89, #89-15
    06-18-13, #BWR-13-06-1803-05-89, #89-10
    06-15-13, #13-2412-25-88, #88-52
    06-13-13, #ISGD-13-2408-21-88, #88-34
    05-25-13, #AOTA-13052508-07-88, #88-32
    02-28-13, #ISGD-13-0907-17-88, #88-29
    12-22-12, #12-5112-06-87, #87-49
    12-18-12, #BWR-12-12-1811-08-87, #87-45
    12-15-12, #AOTA-12121508-16-87, #87-33
    12-09-12, #MMS-16006-21-87, #KLSX-87-25
    09-11-12, #BWR-12-09-1106-14-87, #87-24
    08-25-12, #12-3405-17-87, #87-20
    07-14-12, #12-2811-30-86, #86-48
    06-23-12, #12-2511-30-86, #KMET-86-48
    06-12-12, #BWR-12-06-1208-24-86, #86-34
    05-15-12, #BWR-12-05-1508-10-86, #86-32
    03-10-12, #12-1007-27-86, #86-30
    02-07-12, #BWR-12-02-0707-27-86, #KMET-86-30
    12-17-11, #AOTA-11121706-15-86, #86-24
    12-11-11, #MMS-14605-25-86, #86-21
    11-29-11, #BWR-11-11-2902-23-86, #86-08
    10-08-11, #11-4102-23-86, #KMET-86-08
    08-16-11, #BWR-11-08-1602-02-86, #KMET-86-05
    08-09-11, #BWR-11-08-0909-15-85, #85-37
    06-21-11, #BWR-11-06-2108-18-85, #85-33
    06-11-11, #11-2406-23-85, #85-25
    05-21-11, #11-2112-02-84, #84-49
    04-16-11, #11-1608-12-84, #84-33
    02-19-11, #AOTA-11021907-29-84, #84-31
    12-25-10, #10-5207-15-84, #84-29
    10-16-10, #10-4205-13-84, #84-20
    08-14-10, #10-3307-10-83, #83-28
    06-19-10, #10-2502-27-83, #83-09
    06-14-09, #MMCZ-09-2106-13-82, #82-24
    06-14-09, #09-2405-23-82, #82-21
    05-03-09, #MMS-12605-09-82, #82-19
    12-07-08, #08-4903-28-82, #82-13
    08-15-08, #MMDT20_08-3201-24-82, #82-04
    08-10-08, #08-3209-13-81, #81-37
    07-13-08, #08-2808-23-81, #81-34
    06-22-08, #08-2507-12-81, #81-28
    01-06-08, #MMS-10706-21-81, #81-25
    12-23-07, #MMS-10301-11-81, #81-02
    11-23-07, #MMDT20_07-4608-17-80, #80-33
    07-08-07, #07-2707-13-80, #80-28
    07-02-07, #MMS-8406-29-80, #80-26
    09-24-06, #MMS-4606-22-80, #80-25
    09-11-06, #FFM-5306-15-80, #80-24
    08-13-06, #06-3306-01-80, #80-22
    07-02-06, #MMS-3402-03-80, #80-05
    05-28-06, #06-2201-27-80, #80-04
    05-07-06, #MMS-2611-11-79, #79-45
    04-02-06, #MMS-2107-29-79, #79-30
    07-10-05, #05-2806-24-79, #79-25
    05-29-05, #05-2205-20-79, #79-20
    01-16-05, #05-0305-13-79, #79-19
    10-13-04, #KMCC_2-0304-08-79, #79-14
    07-04-04, #XM-5803-18-79, #79-11
    06-27-04, #XM-5703-11-79, #79-10
    06-06-04, #04-2312-24-78, #78-45
    05-30-04, #XM-5310-08-78, #78-34
    05-23-04, #XM-5208-06-78, #78-24
    05-12-04, #KMCC_1-1104-02-78, #78-6
    04-25-04, #04-1709-05-76, #110
    02-01-04, #04-0508-15-76, #107
    08-04-03, #ISGD-03-3008-01-76, #105
    07-21-03, #ISGD-03-2806-06-76, #97
    07-13-03, #03-2804-25-76, #91
    06-29-03, #03-2612-14-75, #72-49
    06-16-03, #ISGD-03-2311-02-75, #66
    01-27-03, #ISGD-03-0308-17-75, #55
    06-23-02, #02-2507-20-75, #51
    12-23-01, #01-5106-08-75, #49
    08-12-01, #01-3212-22-74, #25
    07-01-01, #01-2611-24-74, #21
    01-23-00, #00-0409-08-74, #10
    06-06-99, #99-2308-11-74, #6
    05-02-99, #99-1803-17-74, #KMET-74-11
    01-03-99, #99-0111-12-72, #KMET-72-46
    = Show you can listen to online
     Songs
    http://www.madmusic.com/samples/h/o/Homer_+_Jethro_-_(How_Much_Is_That)_Hound_Dog_In_The_Window_.mp3 (How Much Is That) Hound Dog In The Window?
    http://www.madmusic.com/samples/h/o/Homer_+_Jethro_-_(I_m_Gonna_Live_In)_The_Great_Society.mp3 (I'm Gonna Live In) The Great Society
    http://www.madmusic.com/samples/h/o/Homer_And_Jethro_-_Act_Naturally.mp3 Act Naturally - (with 'Homer And Jethro')
    http://www.madmusic.com/samples/h/o/Homer_+_Jethro_-_Act_Naturally_No_2.mp3 Act Naturally No 2
    http://www.madmusic.com/samples/h/o/Homer_+_Jethro_-_All_I_Want_For_Christmas_Is_My_Upper_Plate.mp3 All I Want For Christmas Is My Upper Plate
    http://www.madmusic.com/samples/h/o/Homer_+_Jethro_-_All_Night_Long.mp3 All Night Long
    http://www.madmusic.com/samples/h/o/Homer_+_Jethro_-_Always.mp3 Always
    http://www.madmusic.com/samples/h/o/Homer__Jethro_-_At_The_Flop.mp3 At The Flop
    http://www.madmusic.com/samples/h/o/Homer_+_Jethro_-_Baby__Its_Cold_Outside.mp3 Baby, Its Cold Outside
    Bacon and Eggs
    Bagel Song, The
    http://www.madmusic.com/samples/h/o/Homer_+_Jethro_-_The_Ballad_Of_Davy_Crew-Cut.mp3 Ballad Of Davy Crew-Cut, The
    http://www.madmusic.com/samples/h/o/Homer_+_Jethro_-_Ballad_Of_Roger_Miller.mp3 Ballad Of Roger Miller
    http://www.madmusic.com/samples/h/o/Homer_+_Jethro_-_Battle_Of_Kookamonga__The.mp3 Battle Of Kookamonga, The
    http://www.madmusic.com/samples/h/o/Homer_+_Jethro_-_Bill_Bailey.mp3 Bill Bailey
    http://www.madmusic.com/samples/h/o/Homer_+_Jethro_-_Billboard_Song__The.mp3 Billboard Song, The
    http://www.madmusic.com/samples/h/o/Homer_+_Jethro_-_Blue_Tail_Fly.mp3 Blue Tail Fly
    http://www.madmusic.com/samples/h/o/Homer_+_Jethro_-_Boll_Weevil.mp3 Boll Weevil
    http://www.madmusic.com/samples/h/o/Homer_+_Jethro_-_Camp_Runamuck.mp3 Camp Runamuck
    http://www.madmusic.com/samples/h/o/Homer_+_Jethro_-_Charlie_Cheated_on_His_Income_Tax.mp3 Charlie Cheated on His Income Tax
    http://www.madmusic.com/samples/h/o/Homer_And_Jethro_-_Chase_Is_On__The.mp3 Chase Is On, The - (with 'Homer And Jethro')
    http://www.madmusic.com/samples/h/o/Homer__Jethro_-_Chow_Hounds_Lament.mp3 Chow Hound's Lament
    http://www.madmusic.com/samples/h/o/Homer_+_Jethro_-_Cielito_Lindo.mp3 Cielito Lindo
    http://www.madmusic.com/samples/h/o/Homer_And_Jethro_-_Cold__Cold_Heart_No_2.mp3 Cold, Cold Heart No. 2 - (with 'Homer And Jethro')
    http://www.madmusic.com/samples/h/o/Homer_+_Jethro_-_Cotton_Fields.mp3 Cotton Fields
    http://www.madmusic.com/samples/h/o/Homer_+_Jethro_-_Crazy_Mixed_Up_Song.mp3 Crazy Mixed Up Song
    http://www.madmusic.com/samples/h/o/Homer_And_Jethro_-_D-I-V-O-R-C-E_(B-A-C-O-N_+_E-G-G-S).mp3 D-I-V-O-R-C-E (B-A-C-O-N & E-G-G-S) - (with 'Homer And Jethro')
    http://www.madmusic.com/samples/h/o/Homer_+_Jethro_-_Daddy_Played_First_Base.mp3 Daddy Played First Base
    http://www.madmusic.com/samples/h/o/Homer__Jethro_-_Doctor_Foo_Man_Choo.mp3 Doctor Foo Man Choo
    http://www.madmusic.com/samples/h/o/Homer_+_Jethro_-_Don_t_It_Make_You_Wanna_Leave_Home.mp3 Don't It Make You Wanna Leave Home
    http://www.madmusic.com/samples/h/o/Homer_+_Jethro_-_Don_t_Jump_Off_The_Roof__Dad.mp3 Don't Jump Off The Roof, Dad
    http://www.madmusic.com/samples/h/o/Homer_+_Jethro_-_Don_t_Monkey_Around_My_Widder.mp3 Don't Monkey Around My Widder
    Don't Sing Along (On Top Of Old Smokey)
    http://www.madmusic.com/samples/h/o/Homer_+_Jethro_-_Donkey_Serenade.mp3 Donkey Serenade
    http://www.madmusic.com/samples/h/o/Homer_+_Jethro_-_Dont_Let_The_Stars_Get_In_Your_Eyeballs.mp3 Dont Let The Stars Get In Your Eyeballs
    http://www.madmusic.com/samples/h/o/Homer_+_Jethro_-_Drafted_Volunteer__The.mp3 Drafted Volunteer, The
    http://www.madmusic.com/samples/h/o/Homer_+_Jethro_-_Egg_Eatin__Dog.mp3 Egg Eatin' Dog
    http://www.madmusic.com/samples/h/o/Homer_And_Jethro_-_El_Paso.mp3 El Paso - (with 'Homer And Jethro')
    http://www.madmusic.com/samples/h/o/Homer_+_Jethro_-_El_Paso_-_Numero_Dos.mp3 El Paso - Numero Dos
    http://www.madmusic.com/samples/h/o/Homer_+_Jethro_-_Fer_The_Good_Times.mp3 Fer The Good Times
    http://www.madmusic.com/samples/h/o/Homer_+_Jethro_-_Five_Minutes_More.mp3 Five Minutes More
    http://www.madmusic.com/samples/h/o/Homer_+_Jethro_-_Frosty_The_Snowman.mp3 Frosty The Snowman
    http://www.madmusic.com/samples/h/o/Homer_+_Jethro_-_Gal_From_Possum_Holler__The.mp3 Gal From Possum Holler, The
    http://www.madmusic.com/samples/h/o/Homer_+_Jethro_-_Glad_I_Waited_For_You.mp3 Glad I Waited For You
    http://www.madmusic.com/samples/h/o/Homer_And_Jethro_-_Gone.mp3 Gone - (with 'Homer And Jethro')
    http://www.madmusic.com/samples/h/o/Homer_+_Jethro_-_Goodbye_Ole_Booze.mp3 Goodbye Ole Booze
    http://www.madmusic.com/samples/h/o/Homer_+_Jethro_-_Groundhog.mp3 Groundhog
    http://www.madmusic.com/samples/h/o/Homer_+_Jethro_-_Hart-Brake_Motel.mp3 Hart-Brake Motel
    http://www.madmusic.com/samples/h/o/Homer_+_Jethro_-_Have_I_Told_You_Lately_That_I_Love_You.mp3 Have I Told You Lately That I Love You
    http://www.madmusic.com/samples/h/o/Homer_And_Jethro_-_He'll_Have_To_Go.mp3 He'll Have To Go - (with 'Homer And Jethro')
    http://www.madmusic.com/samples/h/o/Homer_+_Jethro_-_Hernandos_Hideaway.mp3 Hernandos Hideaway
    http://www.madmusic.com/samples/h/o/Homer_And_Jethro_-_Hey_Good_Lookin'_No_2.mp3 Hey Good Lookin' No. 2 - (with 'Homer And Jethro')
    http://www.madmusic.com/samples/h/o/Homer_+_Jethro_-_Hey_There.mp3 Hey There
    Hill Billy Hippie
    http://www.madmusic.com/samples/h/o/Homer_+_Jethro_-_Huckle_Buck__The.mp3 Huckle Buck, The
    http://www.madmusic.com/samples/h/o/Homer_+_Jethro_-_I_Don_t_Think_My_Gal_Loves_Me_Anymore.mp3 I Don't Think My Gal Loves Me Anymore
    http://www.madmusic.com/samples/h/o/Homer_+_Jethro_-_I_Feel_That_Old_Age.mp3 I Feel That Old Age
    http://www.madmusic.com/samples/h/o/Homer_+_Jethro_-_I_Love_Your_Pizza.mp3 I Love Your Pizza
    http://www.madmusic.com/samples/h/o/Homer_And_Jethro_-_I_Really_Don't_Want_To_Know.mp3 I Really Don't Want To Know - (with 'Homer And Jethro')
    http://www.madmusic.com/samples/h/o/Homer_+_Jethro_-_I_Saw_Mommy_Kissing_Santa_Claus.mp3 I Saw Mommy Kissing Santa Claus
    http://www.madmusic.com/samples/h/o/Homer_+_Jethro_-_I_Want_A_Rib.mp3 I Want A Rib
    http://www.madmusic.com/samples/h/o/Homer_And_Jethro_-_I_Want_To_Go_With_You.mp3 I Want To Go With You - (with 'Homer And Jethro')
    http://www.madmusic.com/samples/h/o/Homer_+_Jethro_-_I_Want_To_Hold_Your_Hand.mp3 I Want To Hold Your Hand
    http://www.madmusic.com/samples/h/o/Homer_+_Jethro_-_I_Wonder_Whos_Kissing_Her.mp3 I Wonder Whos Kissing Her Now
    http://www.madmusic.com/samples/h/o/Homer_+_Jethro_-_I_ll_Close_My_Eyes.mp3 I'll Close My Eyes
    http://www.madmusic.com/samples/h/o/Homer_+_Jethro_-_I_ll_Go_on_a_Diet_Tomorrow.mp3 I'll Go on a Diet Tomorrow
    http://www.madmusic.com/samples/h/o/Homer_+_Jethro_-_I'm_Getting_Nuttin'_For_Christmas.mp3 I'm Getting Nuttin' For Christmas
    http://www.madmusic.com/samples/h/o/Homer_+_Jethro_-_I_m_Movin__On_No__2.mp3 I'm Movin' On No. 2
    http://www.madmusic.com/samples/h/o/Homer_+_Jethro_-_I'm_My_Own_Grandpaw.mp3 I'm My Own Grandpaw
    http://www.madmusic.com/samples/h/o/Homer_+_Jethro_-_I've_Got_Tears_In_My_Ears_(From_Lyin'_On_My_Back_In_My_Bed_While_I_Cry_Over_You).mp3 I've Got Tears In My Ears (From Lyin' On My Back In My Bed While I Cry Over You) - (with 'Mike Harding')
    I've Got Tears In My Ears From Lying On My Back In Bed While I Cry Over You
    http://www.madmusic.com/samples/h/o/Homer_+_Jethro_-_It_Bruised_Her_Somewhat.mp3 It Bruised Her Somewhat
    http://www.madmusic.com/samples/h/o/Homer_+_Jethro_-_Jam-Bowl-Liar.mp3 Jam-Bowl-Liar
    http://www.madmusic.com/samples/h/o/Homer_+_Jethro_-_Jingle_Bells.mp3 Jingle Bells
    Joe Bean
    http://www.madmusic.com/samples/h/o/Homer_+_Jethro_-_Keep_Them_Cold__Icy_Fingers_Offa_Me.mp3 Keep Them Cold, Icy Fingers Offa Me
    http://www.madmusic.com/samples/h/o/Homer_And_Jethro_-_King_Of_The_Camp.mp3 King Of The Camp - (with 'Homer And Jethro')
    http://www.madmusic.com/samples/h/o/Homer_+_Jethro_-_Let_Me_Go__Blubber.mp3 Let Me Go, Blubber
    http://www.madmusic.com/samples/h/o/Homer_+_Jethro_-_Life_Can_Be_Miserable.mp3 Life Can Be Miserable
    http://www.madmusic.com/samples/h/o/Homer_+_Jethro_-_Lil_Ole_Kiss_Of_Fire.mp3 Lil Ole Kiss Of Fire
    http://www.madmusic.com/samples/h/o/Homer_+_Jethro_-_Love_And_Marriage.mp3 Love And Marriage
    http://www.madmusic.com/samples/h/o/Homer_+_Jethro_-_Love_Is_the_Craziest_Thing.mp3 Love Is the Craziest Thing
    http://www.madmusic.com/samples/h/o/Homer_And_Jethro_-_Lying_Time_(Crying_Time).mp3 Lying Time (Crying Time) - (with 'Homer And Jethro')
    http://www.madmusic.com/samples/h/o/Homer_+_Jethro_-_Managua_Nicaragua.mp3 Managua Nicaragua
    http://www.madmusic.com/samples/h/o/Homer_+_Jethro_-_Margie.mp3 Margie
    http://www.madmusic.com/samples/h/o/Homer_+_Jethro_-_Misty.mp3 Misty
    http://www.madmusic.com/samples/h/o/Homer_+_Jethro_-_Monkey_and_the_Baboon__The.mp3 Monkey and the Baboon, The
    Monsters Of The World Unite
    Mr. Sandman
    http://www.madmusic.com/samples/h/o/Homer_And_Jethro_-_Nashville_Cats.mp3 Nashville Cats - (with 'Homer And Jethro')
    http://www.madmusic.com/samples/h/o/Homer_+_Jethro_-_Night_And_Day.mp3 Night And Day
    http://www.madmusic.com/samples/h/o/Homer_+_Jethro_-_Night_Before_Christmas__The.mp3 Night Before Christmas, The
    http://www.madmusic.com/samples/h/o/Homer_+_Jethro_-_Nite_After_Christmas__The.mp3 Nite After Christmas, The
    http://www.madmusic.com/samples/h/o/Homer_+_Jethro_-_Nuttin__Fer_Christmas.mp3 Nuttin' Fer Christmas
    http://www.madmusic.com/samples/h/o/Homer_And_Jethro_-_Oh_Lonesome_Me.mp3 Oh Lonesome Me - (with 'Homer And Jethro')
    http://www.madmusic.com/samples/h/o/Homer_+_Jethro_-_Oh_That_s_Terrible.mp3 Oh That's Terrible
    http://www.madmusic.com/samples/h/o/Homer_+_Jethro_-_Old_Potato_Peel_Booze__The.mp3 Old Potato Peel Booze, The
    http://www.madmusic.com/samples/h/o/Homer_+_Jethro_-_One_on_the_Right_Is_on_the_Left__The.mp3 One on the Right Is on the Left, The
    http://www.madmusic.com/samples/h/o/Homer_+_Jethro_-_Ornaments.mp3 Ornaments
    http://www.madmusic.com/samples/h/o/Homer_and_Jethro_-_Owed_To_Don_Bowman.mp3 Owed To Don Bowman - (with 'Homer and Jethro')
    http://www.madmusic.com/samples/h/o/Homer_+_Jethro_-_People_Who_Like_People.mp3 People Who Like People
    http://www.madmusic.com/samples/h/o/Homer_+_Jethro_-_Poor_Little_Liza__Poor.mp3 Poor Little Liza, Poor
    http://www.madmusic.com/samples/h/o/Homer_+_Jethro_-_Randolph__The_Flat_Nosed_Reindeer.mp3 Randolph, The Flat Nosed Reindeer
    http://www.madmusic.com/samples/h/o/Homer_+_Jethro_-_Red_Roses_for_a_Blue_Lady.mp3 Red Roses for a Blue Lady
    http://www.madmusic.com/samples/h/o/Homer_+_Jethro_-_Rye_Whisky.mp3 Rye Whisky
    http://www.madmusic.com/samples/h/o/Homer_+_Jethro_-_Santa_Baby.mp3 Santa Baby
    http://www.madmusic.com/samples/h/o/Homer_+_Jethro_-_Santa_Claus_The_Original_Hippie.mp3 Santa Claus, The Original Hippie
    http://www.madmusic.com/samples/h/o/Homer_+_Jethro_-_Santy_s_Movin__On.mp3 Santy's Movin' On
    http://www.madmusic.com/samples/h/o/Homer_+_Jethro_-_Sentimental_Reasons.mp3 Sentimental Reasons
    http://www.madmusic.com/samples/h/o/Homer_And_Jethro_-_Settin'_The_Woods_On_Fire_No_2.mp3 Settin' The Woods On Fire No. 2 - (with 'Homer And Jethro')
    http://www.madmusic.com/samples/h/o/Homer_+_Jethro_-_She_Broke_My_Heart_at_Walgreens.mp3 She Broke My Heart at Walgreens
    She Made Toothpicks Of The Timber Of My Heart
    http://www.madmusic.com/samples/h/o/Homer_+_Jethro_-_She_Was_Bitten_On_The_Udder_By_An_Adder.mp3 She Was Bitten On The Udder By An Adder
    http://www.madmusic.com/samples/h/o/Homer_+_Jethro_-_She_s_Went_and_Gone_Away.mp3 She's Went and Gone Away
    http://www.madmusic.com/samples/h/o/Homer_+_Jethro_-_Shouting_The_Battle_Cry_Of_Freedom.mp3 Shouting The Battle Cry Of Freedom
    http://www.madmusic.com/samples/h/o/Homer_And_Jethro_-_Sixteen_Tons.mp3 Sixteen Tons - (with 'Homer And Jethro')
    http://www.madmusic.com/samples/h/o/Homer_+_Jethro_-_Sixteen_Tons.mp3 Sixteen Tons
    Square Song, The
    http://www.madmusic.com/samples/h/o/Homer_+_Jethro_-_Symophony.mp3 Symophony
    Tennessee Border No.2
    http://www.madmusic.com/samples/h/o/Homer_+_Jethro_-_Tennessee__Tennessee.mp3 Tennessee, Tennessee
    http://www.madmusic.com/samples/h/o/Homer_+_Jethro_-_That_Hound_Dog_In_The_Wind.mp3 That Hound Dog In The Wind
    http://www.madmusic.com/samples/h/o/Homer_+_Jethro_-_There_s_an_Empty_Hanger_in_My_Closet_Tonight.mp3 There's an Empty Hanger in My Closet Tonight
    http://www.madmusic.com/samples/h/o/Homer_+_Jethro_-_Three_Nights_Experience.mp3 Three Nights Experience
    http://www.madmusic.com/samples/h/o/Homer_And_Jethro_-_Tiger_By_The_Tail.mp3 Tiger By The Tail - (with 'Homer And Jethro')
    http://www.madmusic.com/samples/h/o/Homer__Jethro_-_Two_Tone_Shoes.mp3 Two Tone Shoes
    http://www.madmusic.com/samples/h/o/Homer_+_Jethro_-_We_Didn_t_Make_It_Through_The_Night.mp3 We Didn't Make It Through The Night
    http://www.madmusic.com/samples/h/o/Homer_+_Jethro_-_When_A_Man_Loves_A_Woman.mp3 When A Man Loves A Woman
    http://www.madmusic.com/samples/h/o/Homer_+_Jethro_-_Worm.mp3 Worm
    http://www.madmusic.com/samples/h/o/Homer_+_Jethro_-_Yaller_Rose_Of_Texas__You_All.mp3 Yaller Rose Of Texas, You All
    http://www.madmusic.com/samples/h/o/Homer_+_Jethro_-_You_Belong_To_Me_No_2.mp3 You Belong To Me No.2
    You Tell 'Er, I Stutter
    http://www.madmusic.com/samples/h/o/Homer_And_Jethro_-_Your_Colbbered_Heart.mp3 Your Colbbered Heart - (with 'Homer And Jethro')
    Photos:

    Messages about the artist: "Homer & Jethro"

     
    Add a New Message
    Message:
    RadEditor - HTML WYSIWYG Editor. MS Word-like content editing experience thanks to a rich set of formatting tools, dropdowns, dialogs, system modules and built-in spell-check.
    RadEditor's components - toolbar, content area, modes and modules
       
    Toolbar's wrapper  
    Content area wrapper
    RadEditor's bottom area: Design, Html and Preview modes, Statistics module and resize handle.
    It contains RadEditor's Modes/views (HTML, Design and Preview), Statistics and Resizer
    Editor Mode buttonsStatistics moduleEditor resizer
     
     
    RadEditor's Modules - special tools used to provide extra information such as Tag Inspector, Real Time HTML Viewer, Tag Properties and other.
       
    Your account must be activated before you can add a message

    Home - News - Forums - Features - Shows - Songs - Artists - About - Friends - Blogs - Search - Help
    © 2004-2017 Mad Music Productions, LLC, all rights reserved. Portions are Copyright by their respective copyright holders.